TimeMDT,TemperatureF,Dew PointF,Humidity,Sea Level PressureIn,VisibilityMPH,Wind Direction,Wind SpeedMPH,Gust SpeedMPH,PrecipitationIn,Events,Conditions,WindDirDegrees,DateUTC
12:53 AM,32.0,27.0,82,30.31,10.0,ESE,6.9,-,N/A,,Clear,120,2013-11-02 06:53:00
1:53 AM,32.0,26.1,79,30.32,10.0,SE,10.4,-,N/A,,Clear,140,2013-11-02 07:53:00
2:53 AM,30.0,26.1,85,30.31,10.0,SE,8.1,-,N/A,,Clear,130,2013-11-02 08:53:00
3:53 AM,30.0,25.0,82,30.31,10.0,SSE,5.8,-,N/A,,Clear,150,2013-11-02 09:53:00
4:53 AM,30.9,24.1,76,30.29,10.0,ESE,8.1,-,N/A,,Clear,120,2013-11-02 10:53:00
5:53 AM,28.0,23.0,81,30.31,10.0,SE,6.9,-,N/A,,Clear,140,2013-11-02 11:53:00
6:53 AM,27.0,23.0,85,30.33,10.0,South,6.9,-,N/A,,Clear,180,2013-11-02 12:53:00
7:53 AM,26.1,21.9,84,30.33,10.0,SE,6.9,-,N/A,,Clear,130,2013-11-02 13:53:00
8:53 AM,30.9,24.1,76,30.33,10.0,SSE,4.6,-,N/A,,Clear,160,2013-11-02 14:53:00
9:53 AM,37.0,26.1,65,30.30,10.0,Calm,Calm,-,N/A,,Clear,0,2013-11-02 15:53:00
10:53 AM,44.1,24.1,45,30.26,10.0,Calm,Calm,-,N/A,,Clear,0,2013-11-02 16:53:00
11:53 AM,46.9,27.0,46,30.23,10.0,WNW,4.6,-,N/A,,Clear,290,2013-11-02 17:53:00
12:53 PM,51.1,28.0,41,30.18,10.0,WNW,3.5,-,N/A,,Clear,300,2013-11-02 18:53:00
1:53 PM,53.1,27.0,37,30.12,10.0,Calm,Calm,-,N/A,,Clear,0,2013-11-02 19:53:00
2:53 PM,55.9,27.0,33,30.07,10.0,Calm,Calm,-,N/A,,Clear,0,2013-11-02 20:53:00
3:53 PM,59.0,26.1,28,30.03,10.0,Calm,Calm,-,N/A,,Clear,0,2013-11-02 21:53:00
4:53 PM,59.0,30.0,33,30.00,10.0,North,3.5,-,N/A,,Clear,360,2013-11-02 22:53:00
5:53 PM,54.0,30.9,41,30.00,10.0,West,3.5,-,N/A,,Clear,280,2013-11-02 23:53:00
6:53 PM,48.9,33.1,54,30.01,10.0,SSE,3.5,-,N/A,,Clear,150,2013-11-03 00:53:00
7:53 PM,44.1,30.0,58,30.02,10.0,South,8.1,-,N/A,,Clear,170,2013-11-03 01:53:00
8:53 PM,39.9,30.9,70,30.01,10.0,SE,9.2,-,N/A,,Clear,140,2013-11-03 02:53:00
9:53 PM,39.9,30.0,68,29.97,10.0,SSE,11.5,-,N/A,,Clear,160,2013-11-03 03:53:00
10:53 PM,39.0,30.0,70,29.94,10.0,SE,3.5,-,N/A,,Clear,130,2013-11-03 04:53:00
11:53 PM,37.9,28.9,70,29.92,10.0,SSE,6.9,-,N/A,,Clear,160,2013-11-03 05:53:00